Location: Batang Balui
(2.7000°N, 113.7833°E)
Time: 22:20:02
(UTC+00:00)

CZ-4 DEB - Visible Passes

Search period start: 29 November 2023 00:00
Search period end: 09 December 2023 00:00
Orbit: 686 x 832 km, 98.7° (Epoch: 28 November)

Date Brightness Start Highest point End Pass type
(mag) Time Alt. Az. Time Alt. Az. Time Alt. Az.
29 Nov ? 11:54:07 10° SSE 11:56:19 25° SE 11:56:19 25° SE visible
30 Nov ? 11:17:22 10° ESE 11:17:24 10° ESE 11:17:24 10° ESE visible
30 Nov ? 12:55:08 10° SSW 12:57:29 21° SW 12:57:29 21° SW visible
01 Dec ? 12:15:52 10° S 12:18:33 32° S 12:18:33 32° S visible
02 Dec ? 11:38:04 10° SE 11:39:38 18° SE 11:39:38 18° SE visible
02 Dec ? 13:18:39 10° SW 13:19:43 12° WSW 13:19:43 12° WSW visible
03 Dec ? 12:38:02 10° S 12:40:46 28° SSW 12:40:46 28° SSW visible
04 Dec ? 11:59:25 10° SSE 12:01:50 28° SSE 12:01:50 28° SSE visible
05 Dec ? 11:22:25 10° ESE 11:22:53 12° ESE 11:22:53 12° ESE visible
05 Dec ? 13:00:44 10° SSW 13:02:58 19° SW 13:02:58 19° SW visible
06 Dec ? 12:21:13 10° S 12:24:01 33° S 12:24:01 33° S visible
07 Dec ? 11:43:14 10° SE 11:45:04 21° SE 11:45:04 21° SE visible
07 Dec ? 13:24:47 10° WSW 13:25:08 11° WSW 13:25:08 11° WSW visible
08 Dec ? 12:43:26 10° SSW 12:46:10 27° SW 12:46:10 27° SW visible
